View from above orbital plane
|
View from above satellite
|
Ground track
|
The orbit data is extracted from the following two-line orbital elements,
1 29093U 06015B 21016.79056589 .00003264 00000-0 62364-4 0 9994
2 29093 97.6298 200.6332 0050018 268.8414 90.7105 15.47588496819466
Epoch (UTC): | 16 January 2021 18:58:24 |
Eccentricity: | 0.0050018 |
inclination: | 97.6298° |
perigee height: | 390 km |
apogee height: | 458 km |
right ascension of ascending node: | 200.6332° |
argument of perigee: | 268.8414° |
revolutions per day: | 15.47588496 |
mean anomaly at epoch: | 90.7105° |
orbit number at epoch: | 81946 |
The dashed part of the orbit path shows where the satellite is in the earth's shadow,
|
|